sat.trackr.live / text

‹ back to catalog

TK-2

NORAD 52150 · 2022-031A

PAYLOAD ACTIVE UNKNOWN

§ Identity

Operator
Country
PRC
Launch date
2022-03-29
Launch site
TAISC
Launch vehicle
Mass (kg)
RCS (m²)

External: N2YO · Heavens-Above · Gunter

§ Orbital elements

Epoch: 2026-05-25T04:05:10.476096Z

Period
95.78 min
Inclination
97.8315°
Eccentricity
0.0015194
Mean motion
15.03391556 rev/d
Perigee alt
545.9 km
Apogee alt
567.0 km
Semi-major
6,934.6 km
B*
2.0201e-4
RAAN
341.0440°
Arg perigee
200.2448°
Mean anomaly
159.8176°
Rev number
22,700

§ Raw data

TK-21 52150U 22031A   26145.17026014  .00002689  00000+0  20201-3 0  99922 52150  97.8315 341.0440 0015194 200.2448 159.8176 15.03391556227000

JSON: /api/v1/satellites/52150 · /tle

For live sub-satellite position, see the globe view (requires WebGL).

§ Visibility from observer

Set your observer location to see the next 7 days of passes ≥ 10°. The values pass through the URL so the page stays shareable.

No JS? Fill the form by hand. The geolocation button needs JavaScript.